Regional Weather Roundup
Issued by NWS

Current Version | Previous Version | Text Only | Print | Product List | Glossary On
Versions: 1 2 3 4 5 6 7 8 9 10 11 12 13 14 15 16 17 18 19 20 21 22 23 24 25 26 27 28 29 30 31 32 33 34 35 36 37 38 39 40 41 42 43 44 45 46 47 48 49 50
000
ASCA44 KEWX 032020
RWRMX

LATIN AMERICA AND CARIBBEAN REGIONAL WEATHER ROUNDUP
NATIONAL WEATHER SERVICE AUSTIN/SAN ANTONIO TX
300 PM CDT SUN MAY 03 2015

NOTE: "FAIR" INDICATED FEW OR NO CLOUDS BELOW 12,000 FEET WITH NO
SIGNIFICANT WEATHER AND/OR OBSTRUCTIONS TO VISIBILITY.

BAJA CALIFORNIA

CITY           SKY/WX    TMP DP  RH WIND       PRES   REMARKS
LORETO         PTSUNNY   79  63  57 E12       29.84F
LA PAZ         SUNNY     82  46  28 W6        29.91
MEXICALI       SUNNY     90  43  19 SE7       29.77
S.J. DEL CABO  SUNNY     82  52  34 E14       29.90F
TIJUANA        MOSUNNY   68  50  52 W12       29.95F

NORTHWESTERN MEXICO

CITY           SKY/WX    TMP DP  RH WIND       PRES   REMARKS
CULIACAN       MOSUNNY   91  68  46 S6        29.89  HX  95
DURANGO        SUNNY     77  28  16 SE3       30.12
GUAYMAS        MOSUNNY   81  70  69 S12       29.82
HERMOSILLO     PTSUNNY   93  52  24 SE16      29.86  HX  90
CD. JUAREZ     MOSUNNY   84  46  26 NW12      29.90
LOS MOCHIS     MOSUNNY   79  57  47 SW16      29.89F
OBREGON        MOSUNNY   84  59  42 SW13      29.83

NORTHEASTERN MEXICO

CITY           SKY/WX    TMP DP  RH WIND       PRES   REMARKS
CHIHUAHUA      MOSUNNY   82  37  20 NE5       29.98
MATAMOROS      CLOUDY    81  72  74 SE18      30.00
MONTERREY      CLOUDY    73  63  68 E7        29.95F
NUEVO LAREDO   PTSUNNY   88  68  51 SE7       29.94  HX  91
PIEDRAS NEGRAS MOSUNNY   84  63  48 SE12      29.96F
REYNOSA        PTSUNNY   82  64  54 SE9       29.93
SALTILLO       PTSUNNY   81  61  50 N9        30.06F
TORREON        MOSUNNY   90  45  20 N7        29.96F
CD. VICTORIA   MOSUNNY   86  61  42 S8G20     29.90

WESTERN MEXICO

CITY           SKY/WX    TMP DP  RH WIND       PRES   REMARKS
AGUASCALIENTES SUNNY     77  12   8 SW17      30.16
COLIMA         MOSUNNY   90  52  27 SW12      29.94F
DEL BAJIO      MOSUNNY   81  43  26 SE9       30.21F
GUADALAJARA    SUNNY     81  27  13 NW9       30.12
MANZANILLO     SUNNY     84  72  65 W12       29.82F
MAZATLAN       SUNNY     82  63  51 SW12      29.88F
P. VALLARTA    SUNNY     82  68  61 S12       29.88F
URUAPAN        MOSUNNY   77  63  61 S7        30.13F
ZACATECAS      SUNNY     79  28  15 SW23      30.18F

CENTRAL MEXICO

CITY           SKY/WX    TMP DP  RH WIND       PRES   REMARKS
CUERNAVACA     MOSUNNY   86  48  26 CALM      30.03F
MEXICO CITY    MOSUNNY   75  43  31 W2        30.23F
MORELIA        MOSUNNY   81  52  36 NW2       30.15
POZA RICA      PTSUNNY   88  75  66 SE9       29.94F HX  97
PUEBLA         MOSUNNY   75  48  38 SE9       30.23F
QUERETARO      MOSUNNY   81  48  32 NW9       30.20F
S. LUIS POTOSI MOSUNNY   81  39  22 SE7       30.12F
TAMPICO        MOSUNNY   84  68  58 SE14      29.93F
TOLUCA         PTSUNNY   72  37  28 CALM      30.32F

SOUTHERN MEXICO

CITY           SKY/WX    TMP DP  RH WIND       PRES   REMARKS
ACAPULCO       SUNNY     90  77  66 SW7       29.80F HX 102
B. DE HUATULCO MOSUNNY   88  79  74 CALM      29.84  HX 102
OAXACA         PTSUNNY   82  48  30 S10       30.10F
P. ESCONDIDO   MOSUNNY   88  75  66 SW12      30.00  HX  97
VERACRUZ       MOSUNNY   82  68  61 E7        29.93F
ZIHUATANEJO    MOSUNNY   91  73  55 SW12      29.82F HX 100

YUCATAN PENINSULA

CITY           SKY/WX    TMP DP  RH WIND       PRES   REMARKS
CAMPECHE       MOSUNNY   86  68  54 N12G23    29.88F
CANCUN         MOSUNNY   84  70  61 N8        29.96F
CHETUMAL       PTSUNNY   86  72  62 E12       29.91F HX  92
CD. DEL CARMEN MOSUNNY   90  72  55 SE5       29.90F HX  96
COZUMEL        PTSUNNY   81  70  69 E13       29.94F
MERIDA         MOSUNNY   93  64  38 N12       29.91F HX  95
MINATITLAN     MOSUNNY   84  68  58 N12       29.87F
TAPACHULA      PTSUNNY   88  75  66 SW8       29.80F HX  97
TUX. GUTIERREZ MOSUNNY   88  61  40 E8        29.88F
VILLAHERMOSA   MOSUNNY   90  70  51 NE9       29.92F HX  95

CENTRAL AMERICA

CITY           SKY/WX    TMP DP  RH WIND       PRES   REMARKS
BELIZE CITY    MOSUNNY   84  72  65 E8        29.92F
MANAGUA        PTCLDY    91  72  52 NE7       29.77S HX  98

CARIBBEAN

CITY           SKY/WX    TMP DP  RH WIND       PRES   REMARKS
ARUBA          MOSUNNY   86  75  70 E24G37    29.77F HX  95
CURACAO        MOSUNNY   86  73  66 E16       29.83S HX  93
KINGSTON       MOSUNNY   86  73  66 SE23      29.86S HX  93
NASSAU         PTSUNNY   79  61  53 NE14      30.07F
SAN JUAN       MOSUNNY   91  70  49 SE13G22   29.94F HX  97
SANTO DOMINGO  MOSUNNY   88  72  58 S12       29.92S HX  94
ST. CROIX      MOSUNNY   84  72  65 SE10      29.98
ST. KITTS      PTSUNNY   84  73  70 NE10      29.97S HX  91
ST. MAARTEN    MOSUNNY   84  72  65 SE13      29.97S
ST. THOMAS     SUNNY     84  72  65 SE13      29.96

$$




USA.gov is the U.S. government's official web portal to all federal, state and local government web resources and services.